Wind_Speed
10 9 9 10 12 15 18 20 21 21 19 18 18 19 20 20 19 19 19 20 21 21 22 23 24 26 27 28 29 30 31 32 33 33 33 32 31 30 30 29 28 27 26 25 25 25 24 24 24 24 23 24 24 24 24 24 24 24 24 23 22 23 24 25 24 23 21 20 21
21 20 19 19 19 20 20 21 21 22 20 19 18 18 19 20 20 20 20 21 22 23 23 24 25 26 27 28 29 30 31 31 32 32 32 31 31 30 30 29 28 27 26 25 24 24 24 24 23 23 23 23 23 23 23 23 23 24 23 23 22 23 24 24 24 22 21 20 20
21 19 19 19 19 20 20 19 20 21 22 21 19 19 19 20 20 19 20 20 22 23 24 25 25 26 27 27 28 29 30 30 31 31 31 30 30 30 29 29 27 25 24 24 24 23 23 23 23 23 23 23 23 22 22 22 23 23 23 23 22 23 23 23 23 21 20 19 20
27 22 19 19 19 19 20 20 20 21 22 21 21 20 19 19 19 19 20 21 22 23 24 25 25 26 27 27 28 29 29 29 29 29 30 29 29 29 28 28 26 24 23 22 23 23 23 23 23 22 22 23 23 22 22 22 23 23 23 23 22 22 23 23 22 21 19 19 20
34 29 23 20 19 19 20 20 20 21 21 21 21 20 19 19 19 20 20 20 20 21 23 24 25 25 26 27 28 28 28 28 28 28 28 28 28 27 27 26 26 24 23 22 22 22 23 23 22 21 21 22 22 22 22 22 23 23 22 22 22 22 22 22 22 20 19 19 19
36 34 31 27 24 22 20 20 19 18 19 20 20 20 20 20 20 20 20 20 20 21 22 23 24 24 25 26 27 27 27 27 26 27 27 27 26 25 25 25 24 23 23 22 22 22 23 22 21 20 21 21 21 21 22 22 23 23 22 21 20 21 21 22 21 20 20 19 19
35 36 35 32 29 26 23 21 19 18 18 19 20 20 20 20 20 20 20 20 21 21 21 21 22 23 25 26 26 27 26 25 25 25 26 26 26 25 24 24 23 22 22 22 22 22 22 22 21 20 20 20 20 21 21 22 22 22 21 20 20 20 20 21 21 21 20 20 19
36 37 36 35 32 29 26 23 21 19 18 18 18 19 19 20 20 20 20 20 19 19 19 19 20 21 23 25 25 25 25 25 24 24 25 26 26 25 24 23 23 22 23 23 23 23 22 21 21 21 21 20 20 21 22 22 22 21 21 20 19 19 20 20 21 21 21 20 20
36 36 37 36 34 32 29 27 25 22 20 19 17 17 17 17 18 18 18 18 18 18 18 18 19 20 22 23 24 24 24 23 23 24 25 26 27 27 25 24 23 22 23 23 23 23 22 21 21 21 21 21 21 21 22 22 22 21 20 20 19 19 19 20 21 21 21 21 20
35 35 36 35 34 33 32 30 28 26 24 21 19 17 15 15 15 16 17 18 18 19 19 19 19 20 21 22 22 22 22 22 23 23 25 26 28 28 27 26 24 23 23 23 23 22 21 21 21 21 21 21 21 22 22 22 22 21 20 19 19 19 19 20 21 21 21 22 21
34 35 35 35 34 33 32 31 29 28 26 23 21 18 16 14 13 14 15 17 18 18 19 20 20 20 21 21 21 21 20 20 21 22 23 25 28 29 29 28 26 24 23 22 22 21 21 20 20 20 20 20 20 21 22 23 22 21 20 20 20 20 20 20 21 21 22 22 22
35 35 35 34 34 33 32 31 29 28 26 24 22 19 17 14 12 12 13 15 16 17 17 18 19 20 20 20 19 19 19 18 19 20 22 24 26 29 30 29 28 27 25 22 21 19 19 18 18 19 18 18 19 21 22 23 22 21 20 20 20 20 21 21 21 22 22 23 22
36 35 35 34 34 33 32 31 29 27 26 24 22 20 17 14 12 11 12 13 14 14 15 16 17 18 19 19 18 18 17 17 18 20 21 22 24 26 28 29 28 28 26 24 21 19 17 16 16 17 17 18 18 20 22 23 22 22 21 20 21 21 21 21 22 22 23 23 23
38 36 35 34 34 33 32 31 29 27 26 24 21 19 17 15 13 11 10 11 11 12 13 14 15 16 17 17 17 16 16 16 17 19 20 20 22 24 25 26 27 27 26 24 22 20 18 16 15 15 16 17 18 19 21 23 22 22 21 21 21 22 22 22 22 23 23 23 23
38 37 36 35 33 32 31 30 29 28 27 25 22 19 17 15 13 11 10 9 9 10 11 11 12 13 14 15 15 14 14 15 16 17 18 18 19 21 22 24 24 25 24 23 22 20 19 17 15 15 15 16 17 19 21 22 22 21 21 21 22 22 22 23 23 24 24 24 24
38 37 37 35 34 33 31 30 29 29 29 27 24 20 17 15 13 12 11 9 7 8 8 9 10 11 12 13 13 13 12 13 15 16 16 16 17 18 19 21 22 22 22 21 20 20 19 18 17 15 15 16 17 18 20 21 21 21 21 21 22 22 23 24 24 24 24 24 24
37 37 36 36 35 33 32 31 30 29 29 29 27 23 19 16 13 12 11 10 8 7 6 7 7 8 9 10 11 11 11 12 13 14 15 15 15 15 17 18 19 20 20 19 19 19 18 18 18 17 17 17 17 18 19 21 21 21 20 20 21 22 23 24 24 25 25 24 24
36 36 36 35 35 34 33 32 31 30 29 29 28 26 22 18 14 11 10 10 10 9 8 7 6 7 8 9 9 10 10 11 12 13 14 14 14 14 15 16 17 17 17 17 17 18 18 19 19 19 18 18 17 18 19 20 21 21 21 20 20 22 23 24 24 25 25 24 24
34 35 35 34 34 33 33 33 32 31 30 29 29 28 25 21 17 13 10 9 10 10 9 9 7 7 7 7 8 9 10 10 11 12 13 14 14 14 14 14 14 14 14 15 16 16 17 18 18 19 18 18 17 18 19 20 21 21 21 20 20 21 22 23 24 24 24 24 24
33 33 33 32 32 33 33 32 32 31 31 30 30 29 28 25 21 16 12 10 9 9 8 8 8 8 7 6 7 8 9 10 10 11 12 13 14 14 13 13 13 12 12 12 13 14 15 16 17 17 18 17 17 18 18 19 21 21 21 21 20 21 22 23 23 23 23 23 24
32 32 32 31 31 31 32 32 32 32 32 31 31 30 29 28 25 21 16 11 8 7 7 7 7 7 7 6 5 6 7 8 9 10 12 13 13 14 13 13 13 12 12 11 11 12 13 14 15 16 17 17 17 17 18 19 20 21 21 21 21 21 22 22 23 22 22 23 23
31 31 31 31 31 31 32 32 32 32 32 32 31 30 30 29 28 26 21 15 10 7 6 5 5 5 6 7 5 4 5 6 8 9 11 12 13 13 14 14 14 14 13 12 11 11 11 13 14 15 16 16 16 16 17 18 19 20 21 21 21 21 21 22 22 21 21 22 22
31 30 30 30 31 32 32 32 32 32 31 31 31 30 29 29 28 28 26 22 17 11 7 4 3 2 4 5 5 5 3 4 6 9 10 12 13 13 14 15 15 16 16 15 13 12 12 12 13 14 15 16 16 16 17 18 19 19 20 21 21 21 21 21 20 20 20 21 21
31 30 30 30 31 32 32 32 32 32 31 31 30 29 29 28 28 28 27 26 23 19 13 7 3 1 1 2 3 4 3 3 5 8 10 11 12 13 13 15 16 17 18 17 16 16 15 15 14 15 15 16 16 16 17 18 18 19 20 21 21 20 20 20 19 19 20 20 21
31 31 30 30 30 31 31 32 31 30 30 29 29 29 28 28 27 27 27 26 26 24 20 15 8 4 3 3 2 2 2 2 3 6 8 10 11 12 13 14 16 18 19 19 19 18 18 18 18 17 17 17 17 17 17 18 19 20 20 21 21 20 20 19 19 19 19 20 21
32 32 31 30 30 30 31 30 30 29 29 29 28 28 27 27 27 27 26 26 26 25 24 22 16 9 4 5 5 5 4 4 4 5 7 8 10 11 12 13 15 17 19 20 20 20 21 20 20 19 19 18 18 17 17 18 19 19 20 20 20 20 19 19 19 19 20 20 21
31 32 31 31 31 30 30 30 30 29 29 28 28 27 26 25 25 26 26 26 25 25 24 24 22 18 11 6 6 8 7 6 6 6 6 7 9 10 11 13 14 17 19 20 21 22 22 22 21 20 20 20 19 19 18 18 19 19 19 19 20 20 20 20 20 20 20 20 20
30 30 31 31 31 31 30 30 29 29 28 28 27 26 25 24 24 25 25 25 25 25 24 23 23 23 20 14 8 6 9 9 8 8 8 8 9 10 11 12 13 15 17 20 22 23 23 22 21 21 20 20 20 19 19 18 18 18 18 19 19 19 20 20 21 21 21 20 20
29 29 30 30 30 31 31 30 29 28 27 27 27 26 25 24 23 23 23 24 25 25 24 23 22 22 22 21 18 12 6 7 9 9 9 9 10 11 12 13 12 13 15 18 21 23 23 23 22 21 21 20 20 19 18 17 17 17 18 18 19 19 20 20 21 21 21 21 21
29 29 28 29 29 30 30 30 29 28 27 27 27 27 26 24 24 24 23 23 24 24 24 23 22 22 22 22 22 20 15 9 5 8 10 11 11 12 13 13 13 13 13 15 18 21 23 24 23 23 22 21 19 18 17 17 17 17 18 18 19 20 20 20 21 21 21 21 21
28 28 28 28 28 28 29 29 28 27 27 27 28 27 26 25 24 23 23 24 24 25 25 24 23 23 22 22 21 21 20 17 13 7 6 10 12 13 13 14 14 14 13 13 15 19 22 24 24 23 22 21 19 17 17 17 18 18 19 19 19 20 20 21 21 21 22 22 22
28 28 28 27 27 27 28 28 28 27 26 27 27 27 26 24 24 24 24 25 26 26 26 25 25 25 24 23 22 22 21 20 18 15 10 6 9 12 14 15 15 16 15 14 14 16 20 23 23 23 22 20 19 18 17 17 18 19 19 19 19 19 20 21 21 22 22 22 22
28 28 28 27 27 27 27 27 26 26 25 26 27 26 25 24 25 25 25 26 26 25 25 25 25 25 24 24 24 23 22 21 19 18 16 13 7 8 12 14 16 17 17 16 15 15 17 20 22 23 22 21 20 19 18 17 17 18 18 18 18 19 20 20 21 21 22 22 23
27 27 27 27 27 27 27 26 26 24 24 25 26 26 24 24 24 24 24 25 26 25 25 24 24 24 24 24 24 23 22 21 20 19 17 15 13 9 7 11 14 16 17 17 16 16 17 18 20 22 22 22 22 20 19 17 16 16 17 17 17 18 19 19 20 20 21 22 23
25 26 26 27 27 27 27 26 25 24 23 24 25 25 24 23 22 23 24 25 25 25 25 25 25 25 24 24 24 23 23 22 21 19 18 16 15 13 10 8 10 13 15 16 16 16 16 17 18 20 21 23 23 22 19 18 16 16 17 17 17 17 18 19 18 18 19 21 22
24 24 24 25 26 26 26 26 25 24 23 23 23 23 23 22 22 22 23 24 25 25 25 26 26 25 24 24 24 23 23 23 21 20 18 17 16 15 14 12 10 10 12 14 15 15 15 15 16 18 21 24 24 23 20 18 17 16 17 17 17 18 18 18 18 17 18 20 22
23 23 23 24 24 25 25 25 25 24 24 23 23 22 22 21 21 22 22 23 24 24 25 25 25 25 24 24 24 23 23 22 21 20 19 17 16 16 16 15 13 11 11 13 14 15 15 15 15 17 21 24 25 23 21 19 17 16 16 17 18 18 18 19 19 18 18 19 21
22 22 22 23 23 24 24 24 23 23 23 23 23 22 21 20 20 21 22 22 22 22 23 24 24 24 24 24 24 24 23 22 21 20 19 18 17 17 17 16 15 14 12 13 14 15 16 16 16 17 20 24 25 23 21 19 17 16 16 17 18 19 19 19 19 19 19 20 21
22 22 22 22 22 22 23 22 22 22 23 23 23 22 21 20 20 20 21 21 21 21 21 22 23 23 24 24 24 24 23 22 21 20 19 18 18 17 17 17 16 15 13 13 14 15 16 16 16 17 20 23 24 23 21 20 18 17 16 17 18 19 19 19 20 20 20 21 22
21 21 21 21 21 22 22 21 21 21 22 23 23 22 21 21 20 20 21 21 21 21 21 21 22 23 24 24 23 23 23 23 22 21 20 19 19 18 17 17 17 15 14 13 13 15 16 17 17 18 20 22 24 23 22 21 19 18 17 17 18 19 19 19 20 20 21 22 23
21 21 21 21 21 21 21 20 21 21 22 22 22 22 21 20 20 21 21 22 21 21 21 21 21 22 23 23 22 22 22 23 22 21 21 20 19 18 17 17 17 16 15 14 13 14 16 17 18 19 20 22 23 23 22 22 20 19 18 18 19 20 20 20 20 20 22 23 23
Wind_Direction
81 91 101 103 94 85 79 77 81 87 93 99 105 112 118 119 117 117 119 121 122 123 125 129 132 135 139 142 143 144 146 147 149 152 153 153 152 152 151 149 148 148 149 150 152 154 157 159 160 162 164 166 167 166 166 165 165 166 166 168 169 172 175 178 181 183 184 184 183
54 62 71 79 83 82 80 78 79 82 87 92 97 102 106 109 111 112 114 117 121 123 124 126 129 133 137 140 142 143 144 145 148 151 153 154 154 153 151 149 148 148 150 152 153 155 156 158 160 161 163 165 165 164 164 164 165 165 167 169 171 173 175 177 180 182 183 182 182
37 50 61 71 82 87 89 89 86 85 87 90 95 96 96 102 107 109 110 115 121 124 125 126 129 133 136 138 141 143 144 145 147 149 151 152 153 153 151 149 148 149 151 153 155 156 158 160 162 163 164 164 164 163 162 163 165 166 167 170 171 173 174 176 178 179 180 179 179
23 32 47 60 73 81 88 94 96 96 96 97 98 98 97 98 101 105 110 116 120 123 125 128 130 134 137 139 140 142 144 146 147 148 148 149 151 151 151 150 149 150 152 154 156 158 160 163 165 165 164 164 163 162 162 163 165 166 168 170 171 172 173 175 176 176 176 175 176
21 23 30 43 58 69 77 88 96 101 104 106 105 102 100 98 101 105 110 116 120 124 128 131 133 135 138 140 141 142 144 146 147 147 147 148 149 149 149 150 150 151 153 156 158 161 164 166 166 166 165 164 164 163 163 163 164 166 167 169 170 172 173 174 175 175 174 173 174
23 23 25 30 40 53 65 76 86 95 103 107 107 104 102 103 105 108 112 115 122 127 131 133 135 137 139 140 141 142 143 144 146 146 146 146 147 148 149 150 152 154 156 159 161 163 165 166 165 164 164 164 164 164 164 164 165 165 166 166 169 171 172 173 174 175 174 172 173
25 26 27 29 34 42 53 64 74 85 94 100 104 106 107 110 112 114 116 119 124 128 131 133 135 138 140 140 141 142 143 144 145 146 146 145 144 145 148 151 154 156 159 162 163 165 166 165 163 163 164 164 164 164 165 165 165 165 165 165 167 169 171 173 174 175 175 174 174
28 29 30 31 33 36 43 51 61 70 80 88 96 102 107 111 114 117 119 122 125 128 132 135 138 142 144 144 144 144 144 144 146 147 146 145 144 145 148 151 154 158 161 163 165 165 165 165 164 164 165 165 164 165 166 166 166 165 165 165 167 169 171 173 175 176 177 177 177
26 29 31 33 34 35 38 43 49 56 64 73 83 93 101 107 111 114 118 122 128 134 139 143 146 149 151 150 149 149 148 148 148 148 147 146 146 147 149 152 155 159 162 164 165 165 164 164 165 165 166 165 165 165 166 167 165 165 165 166 168 170 171 173 176 178 179 179 180
23 26 29 32 34 35 37 39 42 46 52 58 68 79 90 99 107 113 119 126 135 141 146 151 154 156 156 156 155 154 154 153 152 150 149 148 148 149 151 153 157 160 163 165 165 164 164 164 164 165 166 166 165 166 166 167 166 165 166 167 168 170 171 174 176 178 180 181 182
21 24 27 29 32 35 37 37 38 40 44 49 55 65 76 91 104 116 126 134 139 143 149 155 158 159 159 160 160 160 159 157 156 154 153 152 152 153 154 155 157 160 163 165 165 165 164 163 163 163 163 164 165 165 166 167 167 167 167 168 169 170 171 174 176 178 180 182 183
20 22 25 27 31 34 36 36 36 37 39 43 48 55 65 80 99 117 129 136 139 143 150 157 160 161 161 162 162 163 163 161 159 159 158 158 156 156 156 157 158 160 162 164 166 166 165 163 161 160 161 162 164 166 168 169 169 168 168 169 170 171 171 172 174 177 179 181 182
20 21 23 25 28 31 33 34 34 35 36 39 43 48 56 68 87 108 124 133 137 142 148 156 161 162 162 162 163 163 163 162 161 161 161 161 159 158 158 158 159 160 161 163 164 163 162 160 159 160 161 163 165 168 170 171 171 170 170 170 171 171 171 172 173 175 177 179 179
20 21 21 23 25 28 29 30 31 32 33 36 38 42 48 56 70 89 109 124 134 140 145 151 157 160 161 161 161 161 161 160 159 160 161 161 161 159 158 158 159 160 161 162 162 161 159 157 158 162 165 167 169 171 173 173 173 172 172 172 173 173 173 173 174 175 176 177 177
20 20 20 22 23 25 26 26 27 28 30 33 36 38 40 45 54 67 86 107 127 139 144 146 149 154 158 160 159 157 157 157 158 159 160 160 160 158 157 157 158 160 161 162 163 162 161 159 161 166 172 174 174 174 175 175 175 175 175 175 176 176 175 176 177 177 177 176 175
19 19 20 20 21 22 22 23 23 25 26 29 33 36 37 38 42 50 63 80 106 130 141 142 143 147 153 157 157 155 154 155 157 158 158 159 159 157 155 155 157 159 161 163 165 166 167 166 167 172 178 180 179 178 177 176 176 177 178 179 180 180 180 180 181 180 179 178 176
19 19 19 19 19 20 20 20 21 22 23 27 31 34 35 35 36 40 48 58 73 93 116 132 141 146 151 156 158 156 153 154 157 158 159 159 159 157 155 155 157 160 162 165 168 170 173 174 174 178 182 184 183 181 179 178 179 180 181 182 183 184 184 185 185 184 183 181 180
18 18 18 18 18 18 19 19 19 20 21 24 27 31 34 35 35 36 41 48 54 63 76 95 118 135 146 153 158 158 155 153 156 160 162 162 161 160 158 158 159 162 166 170 172 174 176 177 178 180 183 184 184 182 181 181 181 182 184 185 186 187 188 188 189 188 186 184 185
17 17 17 17 17 18 18 19 19 19 20 22 25 28 32 33 34 35 38 41 44 49 57 69 83 102 123 139 150 155 155 154 157 161 165 166 165 163 162 162 163 166 171 175 175 176 178 179 181 182 183 183 183 182 183 183 184 185 187 189 190 191 191 191 191 190 189 188 189
17 17 17 16 17 17 18 19 19 20 21 22 23 25 28 31 33 33 34 36 38 41 47 56 65 75 90 115 137 149 155 158 160 163 166 168 168 167 166 165 165 168 173 177 176 177 179 181 182 182 182 182 182 182 183 184 186 188 190 192 194 194 194 194 193 191 191 192 193
16 16 16 16 17 17 18 19 20 22 22 23 23 23 25 27 29 30 30 31 33 37 42 50 58 65 72 85 112 141 157 164 166 167 169 172 172 171 169 166 165 166 168 173 176 178 181 183 184 184 183 183 183 183 183 184 186 189 192 195 197 198 197 196 194 193 192 194 196
14 15 16 16 17 17 18 19 21 22 23 23 23 23 23 24 25 27 28 28 28 29 34 42 55 66 70 74 86 115 154 172 177 177 176 177 177 176 173 170 167 166 166 169 174 180 184 187 188 188 187 186 186 186 185 185 187 190 194 197 199 200 200 198 196 195 195 196 199
12 14 15 16 16 17 18 19 20 22 22 22 22 22 21 21 22 24 26 27 25 22 18 18 36 70 82 79 79 89 122 167 184 187 187 185 184 181 178 175 172 170 170 171 174 179 185 189 192 192 192 191 191 190 189 188 190 192 195 198 200 201 201 199 197 196 197 199 201
10 12 14 15 15 16 17 18 19 20 20 20 20 20 20 20 20 21 23 24 24 21 15 4 343 301 154 113 93 88 99 140 180 191 194 194 191 187 185 182 179 178 177 177 179 182 187 191 194 195 196 196 196 195 194 193 194 196 197 198 200 201 200 199 197 196 197 199 201
9 11 12 13 14 15 16 17 17 17 17 18 18 19 19 18 18 18 19 20 21 22 19 13 357 316 255 217 190 152 133 142 177 193 197 198 197 195 194 192 190 187 185 185 186 189 193 195 196 197 198 199 198 198 197 197 198 199 199 199 199 198 198 196 196 196 197 198 199
7 9 10 12 12 13 14 15 15 15 15 16 16 17 17 17 16 16 16 16 17 19 20 19 13 357 308 247 227 214 200 192 195 201 204 204 203 203 203 203 202 198 195 194 195 197 199 200 199 199 199 199 198 198 198 199 200 200 200 199 198 197 195 193 193 194 196 197 198
6 7 8 9 11 12 12 12 13 13 14 14 14 15 15 16 15 15 14 13 14 15 17 18 16 11 359 316 252 229 219 211 209 210 212 213 212 211 211 212 210 207 204 202 202 203 203 202 201 200 199 199 198 197 197 198 199 200 200 199 198 196 194 192 191 192 194 195 197
4 5 6 8 9 9 9 10 11 11 11 11 11 11 13 14 14 14 12 11 11 12 12 12 12 11 9 0 334 269 236 224 218 216 217 220 220 220 220 219 216 213 210 209 209 208 206 203 201 200 200 199 197 197 197 197 198 199 200 199 199 197 195 193 191 191 192 193 193
3 4 5 6 7 7 7 8 8 8 9 9 9 9 10 11 11 11 10 9 9 8 7 6 5 5 5 4 2 353 312 249 230 224 222 222 224 224 225 224 222 218 214 214 213 211 208 204 202 201 201 198 196 195 195 196 197 199 201 201 201 199 197 194 192 191 191 190 190
1 2 4 5 5 5 5 5 5 6 6 6 6 7 8 9 8 8 7 6 5 4 4 3 2 360 358 358 1 3 1 347 286 241 228 225 224 226 227 226 225 223 220 218 216 213 209 205 203 201 199 194 192 192 194 196 199 202 204 204 203 202 199 196 194 192 190 189 187
360 0 1 3 4 4 4 3 3 4 4 4 5 6 6 6 5 4 3 2 1 2 2 2 1 359 357 356 356 357 360 3 358 331 261 233 227 227 228 227 226 226 225 222 219 214 210 206 204 200 195 190 189 191 196 200 203 205 206 206 205 204 201 198 195 193 191 188 185
358 359 359 0 1 1 1 2 2 3 3 3 4 4 4 3 2 1 1 0 360 359 359 359 358 357 356 355 353 352 352 356 360 359 347 297 244 231 229 229 228 227 227 225 221 214 210 206 204 200 195 192 193 197 201 203 205 206 206 206 206 205 203 199 197 194 192 189 184
357 357 357 358 358 358 359 0 1 2 3 3 3 3 2 0 359 359 359 359 358 357 356 355 355 354 352 351 350 347 346 347 350 355 358 352 321 259 234 228 227 227 227 226 222 216 210 207 204 202 200 200 202 203 204 203 204 204 204 205 205 205 203 200 198 195 193 190 186
356 355 355 355 355 355 356 357 359 1 3 3 2 1 360 358 357 356 356 356 355 355 354 353 351 351 350 349 348 345 343 343 345 347 351 353 349 328 272 237 229 226 226 226 224 219 214 209 207 206 206 206 206 205 204 202 201 201 201 202 203 203 202 200 198 197 195 191 187
355 354 353 353 353 353 353 355 357 359 2 3 2 360 358 357 355 353 352 352 352 352 352 351 351 350 349 348 347 344 342 341 341 342 344 346 348 343 326 284 248 233 228 226 225 222 218 214 210 209 208 208 206 205 203 200 199 199 200 200 201 201 200 199 198 197 196 193 188
354 353 352 351 351 351 352 353 354 357 359 1 1 359 356 354 352 351 350 350 349 349 349 348 348 348 346 345 344 342 340 339 337 337 339 340 341 341 337 323 294 261 241 232 228 226 223 219 215 212 210 207 206 205 203 201 200 199 200 200 201 201 200 199 198 198 197 193 189
353 353 352 350 350 350 350 351 352 354 356 357 358 357 354 351 349 348 348 348 347 346 345 345 345 344 343 341 339 339 338 338 336 335 334 334 334 334 334 331 319 297 268 247 236 231 227 223 218 214 210 208 207 206 204 203 201 200 200 200 201 202 202 200 200 199 198 195 191
351 351 351 350 349 348 349 350 351 352 353 353 354 353 352 350 347 346 346 346 344 342 341 341 341 341 340 339 337 337 337 339 337 334 331 329 327 326 327 327 325 314 293 268 249 237 230 225 219 214 211 209 208 207 206 204 203 201 200 200 201 202 202 202 201 201 200 197 193
350 350 350 349 348 347 348 348 350 350 350 350 350 350 349 348 346 344 343 343 342 340 338 338 338 338 339 339 337 336 336 338 338 335 331 326 324 323 321 321 322 320 309 287 265 249 236 227 220 214 211 211 209 208 206 205 204 203 202 201 200 199 200 200 200 200 199 197 194
349 349 349 349 348 347 347 347 348 349 349 348 348 348 347 346 344 342 342 342 341 339 338 337 337 338 339 339 337 335 335 336 337 337 334 329 325 322 319 317 318 320 317 301 278 259 245 233 224 217 213 211 209 206 205 204 203 203 203 200 196 193 193 194 195 194 192 191 191
348 349 349 349 348 347 347 347 347 347 347 347 346 346 345 343 342 342 342 341 340 339 338 337 337 338 339 339 338 336 334 334 335 337 336 333 329 324 319 315 314 316 317 310 289 267 250 238 230 222 216 212 208 205 202 201 200 201 201 198 192 187 184 184 185 185 185 183 184
Height
628 628 627 627 627 626 625 625 626 627 629 630 632 633 634 635 636 637 638 639 640 641 642 644 646 648 650 651 653 654 656 658 660 663 666 668 670 672 674 676 677 678 681 683 685 687 690 692 694 696 698 699 700 701 701 700 700 701 702 703 705 707 709 711 712 713 714 715 716
629 629 628 628 628 628 628 628 628 630 631 632 634 635 636 636 637 638 639 640 641 642 644 646 647 649 651 652 654 656 657 659 661 664 667 669 671 673 674 676 677 679 681 683 686 688 690 692 694 696 698 699 699 699 699 699 699 700 701 703 705 707 708 710 711 713 713 714 715
632 631 631 630 630 630 631 631 632 632 633 635 636 637 637 638 639 640 641 642 643 644 645 647 649 651 652 654 656 657 658 661 663 665 667 670 671 673 675 676 677 680 681 684 686 688 690 692 694 696 697 698 698 698 698 698 698 700 701 703 705 706 708 710 711 712 713 714 715
634 634 634 633 633 633 634 635 635 635 636 637 638 639 640 641 641 642 643 644 645 646 647 648 650 652 654 655 656 658 660 662 664 666 668 670 671 673 675 676 677 680 682 684 686 688 690 692 694 695 696 696 696 696 696 697 698 700 701 703 704 706 707 708 710 711 712 713 714
636 636 636 636 636 636 636 636 637 638 639 640 641 642 642 643 644 645 646 646 647 648 649 650 652 654 655 656 658 659 661 663 665 667 669 670 671 673 674 675 677 679 682 684 686 688 690 692 693 694 695 695 695 696 696 697 698 700 701 703 704 705 706 708 709 710 711 713 714
640 638 638 638 638 638 638 639 640 640 641 642 643 644 644 645 646 647 648 648 649 650 651 652 654 655 656 658 659 661 663 665 666 668 669 670 671 672 673 675 677 679 681 684 686 688 690 691 693 694 694 695 695 695 696 697 698 700 701 702 703 705 706 707 708 710 711 712 714
644 642 640 640 640 640 640 641 641 642 643 643 644 645 646 646 647 648 649 650 651 652 653 654 655 656 657 659 661 662 664 666 667 668 669 670 670 671 673 675 677 680 682 685 686 688 690 691 692 693 694 694 695 695 696 697 698 699 701 701 703 704 705 706 707 709 711 712 714
646 645 643 642 642 642 642 643 643 644 644 644 645 646 646 647 647 648 648 649 650 652 653 655 656 658 659 661 662 664 665 666 668 669 669 669 670 671 674 676 678 681 683 685 687 688 690 691 691 692 693 694 694 695 696 697 698 699 700 701 702 703 705 706 707 709 710 712 713
649 647 646 645 645 645 644 644 644 644 645 645 646 646 647 647 647 648 648 649 651 653 655 657 659 660 661 662 664 665 666 667 668 669 669 669 670 672 674 677 679 681 684 686 687 688 689 690 691 692 692 693 694 694 695 696 697 698 699 701 702 703 704 706 707 708 710 711 713
652 651 649 648 648 647 646 646 646 646 646 646 646 647 648 648 649 650 650 652 653 655 657 659 661 662 663 664 665 666 667 668 668 669 669 670 671 672 674 677 679 682 684 686 687 688 689 690 691 691 692 692 693 693 694 695 696 697 699 700 701 703 704 705 706 708 709 711 712
655 654 653 652 651 650 649 649 648 648 648 649 649 650 651 651 652 653 654 655 656 658 659 660 661 662 664 665 666 667 668 668 669 670 670 671 671 673 674 676 679 681 684 686 687 688 689 690 690 691 691 691 692 693 693 695 696 697 699 700 701 702 704 705 706 707 709 711 712
659 657 656 655 654 653 652 652 652 652 652 652 653 654 654 655 656 656 657 658 659 659 660 661 662 663 664 665 666 667 668 669 669 671 671 672 673 673 674 676 678 680 682 685 686 688 688 689 689 689 690 691 691 692 693 694 696 697 698 699 701 702 703 705 706 707 709 710 711
662 660 659 658 656 656 655 655 655 655 656 656 656 657 657 658 658 659 659 660 660 661 662 662 663 664 665 666 667 668 668 669 670 671 672 674 674 674 675 676 677 679 681 683 685 686 687 687 688 688 689 690 691 692 693 694 695 696 697 699 700 702 703 704 706 707 709 710 711
665 664 662 661 660 659 658 657 657 658 658 659 659 659 660 660 660 660 661 661 662 662 663 664 665 665 666 666 667 668 669 669 670 671 673 674 675 675 675 676 677 678 680 681 683 684 685 686 686 688 689 690 691 692 693 694 695 696 697 698 700 701 703 704 706 707 708 709 710
668 667 666 664 663 662 661 661 660 660 660 661 661 661 661 661 661 662 662 663 663 664 664 665 666 666 667 667 668 668 669 670 671 672 673 675 675 675 675 675 676 678 679 681 682 683 684 684 686 687 689 690 691 692 693 693 694 695 697 698 700 701 703 704 706 707 708 708 709
672 670 669 667 666 665 664 664 663 663 662 662 662 662 662 663 663 663 663 664 664 665 666 666 666 667 667 668 668 669 669 670 671 672 674 675 676 676 675 675 676 677 679 680 681 682 683 684 685 687 689 690 691 691 692 693 694 695 697 698 700 701 703 704 706 706 707 707 708
675 673 672 671 669 668 667 666 666 666 665 664 664 664 664 664 664 665 665 665 666 666 666 667 667 668 668 669 669 669 670 671 671 673 674 675 676 676 676 676 676 677 679 680 681 682 683 684 685 686 688 689 690 691 691 692 694 696 697 699 700 701 703 704 705 706 706 706 707
678 676 675 674 672 671 670 670 669 668 667 667 666 666 666 666 666 666 666 667 667 667 667 667 668 668 669 669 670 670 671 671 672 673 674 675 676 676 676 677 677 678 679 680 681 682 682 683 684 686 687 688 689 690 691 692 694 696 697 699 700 701 703 704 705 705 705 705 706
681 679 678 677 676 675 674 672 671 671 670 670 669 668 668 667 668 668 668 668 668 668 668 668 669 669 669 670 670 671 671 672 673 674 675 676 676 677 677 678 678 679 680 681 682 682 683 684 685 686 686 688 689 690 691 692 694 696 697 699 700 701 703 703 704 704 704 704 706
683 682 681 680 679 678 677 676 675 673 673 672 671 670 670 669 669 669 669 669 669 669 669 670 670 670 670 670 671 671 672 673 674 675 675 676 677 678 678 679 679 680 681 682 682 683 684 684 685 686 687 688 688 689 690 691 693 695 697 699 700 701 702 703 703 703 702 703 705
686 686 684 683 682 681 680 678 677 676 675 674 673 672 672 671 671 671 671 671 671 671 671 671 671 671 671 671 672 672 673 674 675 675 676 677 678 678 679 679 680 680 681 682 683 684 685 685 686 686 687 688 688 689 690 691 693 695 697 699 700 701 702 702 702 701 701 703 704
690 688 687 686 685 683 682 681 679 678 677 676 675 674 674 673 673 672 672 672 672 672 672 672 672 672 672 672 673 673 674 675 675 676 677 678 678 679 679 679 680 680 681 682 683 684 685 686 687 687 688 688 689 689 690 691 693 695 697 698 700 701 701 701 701 700 701 702 703
692 691 689 688 687 685 684 682 681 680 679 678 677 676 676 675 675 674 674 674 674 674 673 673 673 673 673 673 674 674 675 676 676 677 678 678 679 679 680 680 680 680 681 682 683 684 686 687 687 688 688 689 689 690 691 692 693 695 696 698 699 700 700 700 699 699 700 701 703
694 693 691 690 689 687 686 684 683 682 681 681 680 679 678 677 677 676 676 675 675 675 675 675 674 674 674 675 675 675 676 676 677 678 679 679 679 680 680 680 680 681 681 682 683 684 685 686 687 688 689 690 690 690 691 692 693 695 696 697 698 699 699 698 698 698 700 701 702
696 694 693 692 690 689 687 686 685 684 683 683 682 681 681 680 679 678 677 677 676 676 676 676 676 676 676 676 676 676 676 677 678 679 679 680 680 680 680 681 681 681 681 682 682 683 684 686 686 688 689 689 690 691 691 692 693 694 696 696 697 697 697 697 697 698 699 701 701
696 695 694 693 692 691 689 688 687 686 686 685 684 683 682 682 681 680 679 678 678 677 677 676 677 677 677 676 677 677 677 678 678 679 680 680 680 680 681 681 681 681 681 681 682 683 683 684 686 686 688 689 690 691 691 692 693 694 695 695 696 696 696 696 696 697 698 700 701
697 696 695 694 693 692 691 690 689 688 687 686 686 685 684 684 683 682 681 680 680 679 678 677 677 678 678 678 678 678 678 678 679 679 679 680 680 680 681 681 681 681 681 681 682 682 683 684 685 686 687 688 689 690 691 691 692 693 694 694 695 695 694 694 695 696 698 699 700
699 698 697 696 694 693 692 691 690 689 689 688 687 687 686 685 685 684 683 682 681 681 680 679 679 679 679 679 679 679 678 678 678 679 679 679 679 680 680 680 681 681 681 681 681 682 682 683 684 685 686 687 688 689 690 691 691 692 693 693 694 694 694 694 695 696 697 698 699
701 699 698 697 696 695 694 692 692 691 690 690 689 688 687 686 686 685 685 684 683 683 682 681 681 680 680 679 679 679 679 678 678 678 678 678 679 679 679 680 680 680 680 681 681 681 682 683 684 685 686 686 687 688 689 690 690 691 691 692 693 693 693 694 694 695 696 697 698
702 701 700 699 697 696 695 694 693 693 692 691 690 689 688 687 686 686 686 685 685 684 684 683 682 682 681 680 680 679 679 679 678 678 677 677 678 678 678 679 679 679 680 680 681 681 681 682 683 684 685 686 686 687 688 689 689 690 691 691 692 692 693 693 694 695 696 696 697
703 702 701 700 699 698 697 696 695 694 693 692 691 690 689 688 687 687 686 686 685 685 684 684 683 682 682 681 681 680 679 678 678 678 677 677 677 677 678 678 678 679 679 679 680 680 681 681 682 683 683 684 685 686 687 688 689 689 690 691 691 692 692 693 694 694 695 696 696
705 703 702 701 701 700 699 698 697 696 694 693 692 691 690 689 689 688 687 687 686 685 684 683 683 682 682 681 681 680 679 678 678 677 677 677 677 676 677 677 678 678 678 679 679 680 680 681 681 682 683 683 685 686 686 687 688 688 689 690 691 691 692 693 693 694 694 695 695
706 705 704 702 701 701 700 699 698 697 696 695 693 692 691 691 690 689 688 687 686 686 685 684 684 683 682 681 681 680 680 679 678 677 677 677 677 677 676 677 677 677 678 678 679 679 680 680 681 682 683 683 685 686 686 686 687 687 688 689 690 691 691 692 693 693 694 694 694
708 706 705 704 703 701 701 700 699 698 697 696 695 694 693 692 691 690 689 688 687 687 686 686 685 684 683 682 681 681 680 679 678 678 677 676 676 677 676 676 676 676 677 677 678 678 679 680 680 681 682 683 684 685 685 686 686 686 687 688 689 690 691 692 692 693 693 693 693
709 708 706 705 704 702 701 701 700 699 698 697 696 696 694 693 692 691 691 690 689 688 687 686 685 685 684 683 682 681 680 679 679 678 677 677 676 676 676 676 676 676 676 676 676 677 678 678 679 680 681 682 683 684 684 685 685 685 686 687 688 690 690 691 692 692 693 693 693
711 709 708 706 705 704 702 701 701 700 699 698 698 697 696 695 694 693 692 691 689 688 687 686 686 685 684 683 682 681 681 680 679 678 678 677 677 676 676 676 676 676 675 675 676 676 676 677 678 679 680 681 682 683 683 683 684 684 685 686 687 688 689 690 691 692 692 693 693
711 711 709 708 706 705 704 703 701 701 700 699 699 698 697 696 695 694 693 691 690 689 688 687 686 685 685 684 683 682 681 681 680 679 678 677 677 677 676 676 675 675 675 675 674 675 675 675 676 677 678 680 681 681 682 682 683 683 684 685 686 687 688 690 691 691 692 692 693
712 711 710 709 707 706 705 704 703 702 701 700 699 699 698 697 696 695 694 693 691 691 689 688 687 686 685 684 683 682 681 681 680 679 679 678 677 677 676 676 675 674 674 674 674 673 674 674 675 676 676 678 679 680 681 681 682 682 683 684 685 686 688 689 690 691 691 692 692
713 712 711 710 708 707 706 705 704 703 702 701 700 699 698 697 696 696 695 694 693 691 690 689 688 687 686 684 683 682 681 680 680 679 679 678 677 677 676 676 675 674 674 673 673 673 673 673 673 674 675 676 677 678 679 680 681 681 682 683 684 686 687 688 689 690 691 691 691
713 712 711 710 709 708 707 706 705 704 703 702 701 699 699 698 697 696 695 694 693 692 691 690 688 687 686 685 683 682 681 680 679 679 678 678 677 676 676 675 675 674 673 673 672 672 672 672 672 673 673 674 675 676 677 679 680 681 681 682 683 684 686 686 687 688 689 690 691
713 712 711 710 709 708 707 706 705 704 703 702 701 700 699 698 697 696 695 694 693 692 691 690 689 687 686 685 684 682 681 680 679 678 678 677 676 676 675 675 674 673 673 672 672 671 671 671 671 672 672 673 673 674 676 677 678 679 680 681 682 683 684 685 686 687 687 688 689